User: anonymous   Login
Location: Brno
(49.2000°N, 16.6330°E)
Time: 10:25:40
(UTC+02:00)
Language:

Cosmos 1459 Rocket - Orbit

View from above orbital plane
View from above orbital plane
View from above satellite
View from above satellite

Ground track
Ground track

The orbit data is extracted from the following two-line orbital elements,

1 14059U 83042B   15185.15673218  .00000094  00000-0  76652-4 0  9992
2 14059 082.9710 231.8702 0044078 111.5914 269.2982 13.78518130617386
Epoch (UTC): 04 July 2015 03:45:41
Eccentricity: 0.0044078
inclination: 82.9710°
perigee height: 937 km
apogee height: 1001 km
right ascension of ascending node: 231.8702°
argument of perigee: 111.5914°
revolutions per day: 13.78518130
mean anomaly at epoch: 269.2982°
orbit number at epoch: 61738

The dashed part of the orbit path shows where the satellite is in the earth's shadow,  

DLR